Hourly Data Report for September 13, 2017

All times are specified in Local Standard Time (LST). Add 1 hour to adjust for Daylight Saving Time where and when it is observed.

GRAND MANAN SAR CS
NEW BRUNSWICK

44°42'43.400" N
66°48'06.900" W
78.20 m
8101925
71030
XGM

Download Data

Hourly Data (September 2017)
Hourly Data Report for September 13, 2017
Temp Definition
°C
Dew Point Temp Definition
°C
Rel Hum Definition
%
Wind Dir Definition
10's deg

Wind Spd Definition
km/h
Visibility Definition
km
Stn Press Definition
kPa
Hmdx Definition


Wind Chill Definition


Weather Definition


TIME
00:00 16.7 10.9 69 32 9   99.85     LegendNANA
01:00 16.1 10.8 71 32 9   99.87     LegendNANA
02:00 14.7 10.7 77 30 5   99.88     LegendNANA
03:00 14.2 10.9 80 33 5   99.89     LegendNANA
04:00 13.5 10.6 82 32 6   99.91     LegendNANA
05:00 10.5 9.3 92 31 8   99.92     LegendNANA
06:00 10.3 9.4 94 33 10   99.98     LegendNANA
07:00 13.3 11.5 89 32 7   100.04     LegendNANA
08:00 17.3 12.0 71 32 11   100.06     LegendNANA
09:00 19.0 12.2 65 32 14   100.09     LegendNANA
10:00 20.4 12.7 61 32 12   100.08     LegendNANA
11:00 22.1 12.6 55 32 10   100.06 25   LegendNANA
12:00 24.1 12.7 49 28 8   100.02 27   LegendNANA
13:00 24.3 12.6 48 27 11   99.99 27   LegendNANA
14:00 24.7 13.1 49 23 13   99.96 28   LegendNANA
15:00 23.4 13.2 53 22 14   99.94 26   LegendNANA
16:00 21.6 12.2 55 23 18   99.92     LegendNANA
17:00 20.8 12.6 60 24 13   99.93     LegendNANA
18:00 19.1 11.9 63 25 12   99.95     LegendNANA
19:00 17.9 12.7 72 25 14   99.97     LegendNANA
20:00 17.3 12.8 75 25 12   100.03     LegendNANA
21:00 15.5 12.4 81 25 7   100.02     LegendNANA
22:00 15.0 12.3 84 25 8   100.00     LegendNANA
23:00 15.0 12.3 84 26 8   99.99     LegendNANA

Notes on Data Quality.

Legend

  • E = Estimated
  • M = Missing
  • NA = Not Available
  • ‡ = Partner data that is not subject to review by the National Climate Archives
Date modified: